Location: Unspecified
(43.4354°N, 0.0000°E)
Time: 03:39:19
(UTC+00:00)

Courier 1B - Pass Details

Date: 20 June 2019
Orbit: 963 x 1209 km, 28.3° (Epoch: 21 July)

Event Time Altitude Azimuth Distance (km) Brightness Sun altitude
Rises 00:55:36 0° 252° (WSW) 4,100 - -22.0°
Maximum altitude 01:02:58 10° 207° (SSW) 3,138 - -21.7°
Drops below altitude 10° 01:03:00 10° 207° (SSW) 3,138 - -21.7°
Sets 01:10:19 0° 162° (SSE) 4,059 - -21.3°
